Weather History for Palmer, AK

Change the Weather History Date:

Sunday, March 3, 2013

  Actual Average Record
Temperature  
Mean Temperature -1 °C -  
Max Temperature 2 °C -1 °C 11 °C (1968)
Min Temperature -4 °C -12 °C -27 °C (1992)
Degree Days  
Heating Degree Days 36    
Moisture  
Dew Point -11 °C    
Average Humidity 49    
Maximum Humidity 55    
Minimum Humidity 40    
Precipitation  
Precipitation 0.00 mm - - ()
Sea Level Pressure  
Sea Level Pressure 1025 hPa    
Wind  
Wind Speed 19 km/h (North)    
Max Wind Speed 26 km/h    
Max Gust Speed 34 km/h    
Visibility 16 kilometers    
Events      
Averages and records for this station are not official NWS values.
T = Trace of Precipitation, MM = Missing Value Source: NWS Daily Summary

Daily Weather History Graph

Daily Weather History Graph

Search for Another Location

Airport:

Trip Planner

Search our weather history database for the weather conditions in past years. The results will help you decide how hot, cold, wet, or windy it might be!

Date:

Astronomy

Mar. 03, 2013 Rise Set
Actual Time 7:50 AM AKST 6:27 PM AKST
Civil Twilight 7:06 AM AKST 7:11 PM AKST
Nautical Twilight 6:15 AM AKST 8:02 PM AKST
Astronomical Twilight 5:23 AM AKST 8:54 PM AKST
Moon 2:11 AM AKST (3/3) 9:14 AM AKST (3/3)
Length of Visible Light 12h 04m
Length of Day
10h 37m
Waning Gibbous, 62% of the Moon is Illuminated
Mar 3
Waning Gibbous
Mar 4
Last Quarter
Mar 11
New
Mar 19
First Quarter
Mar 27
Full

Hourly Weather History & Observations

Time (AKST) Temp. Windchill Dew Point Humidity Pressure Visibility Wind Dir Wind Speed Gust Speed Precip Events Conditions
12:53 AM -3.9 °C -9.2 °C -12.2 °C 53% 1019.3 hPa 16.1 km North 14.8 km/h / 4.1 m/s - N/A   Clear
1:53 AM -3.9 °C -10.2 °C -11.7 °C 55% 1019.5 hPa 16.1 km North 20.4 km/h / 5.7 m/s - N/A   Clear
2:53 AM -3.3 °C -10.0 °C -11.7 °C 53% 1020.0 hPa 16.1 km North 24.1 km/h / 6.7 m/s 33.3 km/h / 9.3 m/s N/A   Clear
3:53 AM -3.9 °C -10.5 °C -12.2 °C 53% 1020.5 hPa 16.1 km North 22.2 km/h / 6.2 m/s - N/A   Clear
4:53 AM -4.4 °C -11.1 °C -12.2 °C 55% 1021.0 hPa 16.1 km North 22.2 km/h / 6.2 m/s - N/A   Clear
5:53 AM -4.4 °C -11.4 °C -12.2 °C 55% 1021.6 hPa 16.1 km North 24.1 km/h / 6.7 m/s - N/A   Clear
6:53 AM -3.9 °C -10.5 °C -11.7 °C 55% 1022.2 hPa 16.1 km North 22.2 km/h / 6.2 m/s - N/A   Clear
7:53 AM -3.9 °C -10.8 °C -11.7 °C 55% 1022.6 hPa 16.1 km North 24.1 km/h / 6.7 m/s - N/A   Clear
8:53 AM -3.3 °C -9.4 °C -11.7 °C 53% 1023.2 hPa 16.1 km North 20.4 km/h / 5.7 m/s - N/A   Mostly Cloudy
9:53 AM -2.8 °C -9.4 °C -11.1 °C 53% 1023.9 hPa 16.1 km North 24.1 km/h / 6.7 m/s - N/A   Overcast
10:53 AM -1.1 °C -6.7 °C -10.6 °C 49% 1024.8 hPa 16.1 km North 20.4 km/h / 5.7 m/s - N/A   Overcast
11:53 AM -0.6 °C -5.7 °C -10.6 °C 47% 1025.6 hPa 16.1 km North 18.5 km/h / 5.1 m/s - N/A   Overcast
12:53 PM 0.6 °C -3.3 °C -11.1 °C 42% 1025.9 hPa 16.1 km North 13.0 km/h / 3.6 m/s - N/A   Overcast
1:53 PM 1.7 °C -2.9 °C -10.6 °C 40% 1025.9 hPa 16.1 km North 18.5 km/h / 5.1 m/s - N/A   Overcast
2:53 PM 1.7 °C -2.9 °C -9.4 °C 44% 1025.8 hPa 16.1 km NNW 18.5 km/h / 5.1 m/s - N/A   Mostly Cloudy
3:53 PM 1.7 °C -2.6 °C -10.0 °C 42% 1026.5 hPa 16.1 km North 16.7 km/h / 4.6 m/s - N/A   Mostly Cloudy
4:53 PM 1.1 °C -1.2 °C -11.1 °C 40% 1027.1 hPa 16.1 km NNW 7.4 km/h / 2.1 m/s - N/A   Overcast
5:53 PM 0.0 °C -4.7 °C -10.6 °C 45% 1027.6 hPa 16.1 km NNW 16.7 km/h / 4.6 m/s - N/A   Overcast
6:53 PM -0.6 °C -5.7 °C -10.6 °C 47% 1028.4 hPa 16.1 km North 18.5 km/h / 5.1 m/s - N/A   Overcast
7:53 PM -1.1 °C -7.2 °C -10.6 °C 49% 1028.7 hPa 16.1 km NNW 24.1 km/h / 6.7 m/s - N/A   Clear
8:53 PM -1.1 °C -7.4 °C -10.6 °C 49% 1029.1 hPa 16.1 km North 25.9 km/h / 7.2 m/s - N/A   Clear
9:53 PM -1.7 °C -7.7 °C -12.2 °C 45% 1029.7 hPa 16.1 km North 22.2 km/h / 6.2 m/s - N/A   Partly Cloudy
10:53 PM -2.2 °C -6.7 °C -10.6 °C 53% 1030.6 hPa 16.1 km North 13.0 km/h / 3.6 m/s - N/A   Scattered Clouds
11:53 PM -1.7 °C -6.8 °C -11.1 °C 49% 1031.1 hPa 16.1 km North 16.7 km/h / 4.6 m/s - N/A   Clear